Location: B�di�
(14.6834°N, 3.1047°W)
Time: 04:52:10
(UTC+00:00)

Atlas Centaur 2 - Pass Details

Date: 24 January 2020
Orbit: 459 x 1310 km, 30.4° (Epoch: 19 February)

Event Time Altitude Azimuth Distance (km) Brightness Sun altitude
Rises 18:58:56 0° 302° (WNW) 2,802 5.6 -12.7°
Reaches altitude 10° 19:02:10 10° 329° (NNW) 2,057 4.4 -13.5°
Maximum altitude 19:04:40 14° 0° (N) 1,930 3.9 -14.0°
Enters shadow 19:07:10 11° 28° (NNE) 2,273 4.0 -14.6°
